EW9532 Weather Reports


Display with metric or nautical units.
time (UTC)temp
F
wind
direction
speed
MPH
gust
MPH
rain 1hr
in
rain 24hr
in
rain mn
in
humidity
%
barometer
mb
20220123052452 48 333 0.0 2.0 0.02 0.14 0.14 99 1020.9
20220123051953 48 333 0.0 3.0 0.02 0.14 0.14 99 1021.0
20220123051443 48 333 1.0 3.0 0.02 0.14 0.14 99 1021.0
20220123050936 48 345 1.0 3.0 0.02 0.14 0.14 99 1021.1
20220123050432 48 335 0.0 3.0 0.03 0.14 0.14 99 1021.1
20220123045932 48 335 1.0 3.0 0.03 0.14 0.14 99 1021.0
20220123045432 49 1 0.0 2.0 0.02 0.13 0.13 99 1021.0
20220123044930 49 0 0.0 2.0 0.02 0.13 0.13 99 1020.9
20220123044431 49 20 0.0 1.0 0.03 0.13 0.13 99 1021.0
20220123043930 49 20 0.0 1.0 0.03 0.13 0.13 99 1020.9
20220123043430 49 20 0.0 1.0 0.03 0.13 0.13 99 1021.0
20220123042928 49 20 0.0 1.0 0.03 0.13 0.13 99 1020.9
20220123042416 49 338 0.0 2.0 0.03 0.12 0.12 99 1020.9
20220123041913 49 330 0.0 2.0 0.03 0.12 0.12 99 1021.0
20220123041404 49 340 0.0 3.0 0.03 0.12 0.12 99 1021.1
20220123040904 49 326 1.0 3.0 0.03 0.12 0.12 99 1021.2
20220123040403 49 323 0.0 3.0 0.02 0.11 0.11 99 1021.2
20220123035904 49 323 0.0 1.0 0.02 0.11 0.11 99 1021.1
20220123035402 49 323 0.0 2.0 0.02 0.11 0.11 99 1021.2
20220123034903 49 323 0.0 2.0 0.01 0.10 0.10 99 1021.1
20220123034403 49 327 1.0 2.0 0.01 0.10 0.10 99 1021.1
20220123033903 49 327 0.0 2.0 0.02 0.10 0.10 99 1021.0
20220123033400 49 328 0.0 1.0 0.02 0.10 0.10 99 1021.0
20220123032856 49 327 0.0 1.0 0.02 0.10 0.10 99 1021.0
20220123032353 49 327 0.0 1.0 0.01 0.09 0.09 99 1021.1
20220123031841 49 327 0.0 2.0 0.01 0.09 0.09 99 1020.9
20220123031333 49 328 0.0 2.0 0.01 0.09 0.09 99 1021.1
20220123030832 49 327 0.0 2.0 0.01 0.09 0.09 99 1021.1
20220123030331 49 328 0.0 1.0 0.02 0.09 0.09 99 1021.1
20220123025832 49 328 0.0 1.0 0.02 0.09 0.09 99 1021.2
20220123025333 49 327 0.0 1.0 0.02 0.09 0.09 99 1021.0
20220123024833 49 327 0.0 2.0 0.02 0.09 0.09 99 1021.0
20220123024329 49 328 0.0 2.0 0.02 0.09 0.09 99 1020.8
20220123023825 48 328 0.0 2.0 0.01 0.08 0.08 99 1020.8
20220123023320 48 327 1.0 2.0 0.01 0.08 0.08 99 1020.8
20220123022820 48 327 0.0 2.0 0.02 0.08 0.08 99 1020.8
20220123022314 48 328 0.0 2.0 0.02 0.08 0.08 99 1020.7
20220123021804 48 327 0.0 1.0 0.02 0.08 0.08 99 1020.7
20220123021304 48 327 0.0 3.0 0.02 0.08 0.08 99 1020.7
20220123020805 48 328 0.0 3.0 0.02 0.08 0.08 99 1020.9
20220123020304 47 340 0.0 3.0 0.01 0.07 0.07 99 1020.9
20220123015804 47 326 0.0 4.0 0.01 0.07 0.07 99 1021.0
20220123015306 47 326 1.0 4.0 0.01 0.07 0.07 99 1021.2
20220123014805 47 330 0.0 3.0 0.01 0.07 0.07 99 1021.1
20220123014305 47 330 1.0 4.0 0.01 0.07 0.07 99 1021.1
20220123013803 47 326 1.0 4.0 0.02 0.07 0.07 99 1021.0
20220123013305 47 333 1.0 4.0 0.02 0.07 0.07 99 1021.0
20220123012803 47 332 1.0 5.0 0.01 0.06 0.06 99 1021.1
20220123012306 47 326 3.0 5.0 0.01 0.06 0.06 99 1021.1
20220123011805 47 314 1.0 4.0 0.01 0.06 0.06 99 1021.0
20220123011303 47 333 2.0 4.0 0.01 0.06 0.06 99 1020.9
20220123010806 47 332 1.0 4.0 0.01 0.06 0.06 99 1020.9
20220123010303 47 334 1.0 5.0 0.01 0.06 0.06 99 1020.7
20220123005802 47 332 1.0 6.0 0.01 0.06 0.06 99 1020.7
20220123005305 47 334 2.0 6.0 0.01 0.06 0.06 99 1020.6
20220123004802 47 332 2.0 4.0 0.01 0.06 0.06 99 1020.6
20220123004303 47 335 2.0 4.0 0.01 0.06 0.06 99 1020.6
20220123003803 47 322 2.0 4.0 0.00 0.05 0.05 99 1020.5
20220123003302 47 342 1.0 5.0 0.00 0.05 0.05 99 1020.6
20220123002804 47 332 1.0 5.0 0.00 0.05 0.05 99 1020.4
20220123002306 47 332 2.0 4.0 0.00 0.05 0.05 99 1020.2
20220123001804 47 326 1.0 3.0 0.00 0.05 0.05 99 1020.1
20220123001305 47 330 1.0 3.0 0.00 0.05 0.05 99 1020.2
20220123000805 47 325 0.0 4.0 0.00 0.05 0.05 99 1020.1
20220123000255 47 325 1.0 4.0 0.00 0.05 0.05 99 1020.1
20220122235753 47 325 0.0 4.0 0.00 0.05 0.05 99 1020.2
20220122235250 47 323 0.0 5.0 0.00 0.05 0.05 99 1020.2
20220122234748 47 327 0.0 5.0 0.00 0.05 0.05 99 1020.2
20220122234244 47 328 0.0 3.0 0.00 0.05 0.05 99 1020.1
20220122233738 47 334 1.0 4.0 0.00 0.05 0.05 99 1020.2
20220122233231 47 327 0.0 4.0 0.00 0.05 0.05 98 1020.1
20220122232732 47 333 0.0 3.0 0.01 0.05 0.05 98 1020.0
20220122232230 47 335 0.0 3.0 0.01 0.05 0.05 98 1020.4
20220122231731 47 326 1.0 4.0 0.01 0.05 0.05 98 1020.3
20220122231231 47 325 2.0 5.0 0.01 0.05 0.05 98 1020.2
20220122230731 47 323 1.0 5.0 0.01 0.05 0.05 98 1020.2
20220122230231 47 326 3.0 6.0 0.01 0.05 0.05 98 1020.3
20220122225731 47 336 2.0 6.0 0.01 0.05 0.05 98 1020.2
20220122225228 47 334 1.0 4.0 0.01 0.05 0.05 98 1020.2
20220122224723 47 326 2.0 3.0 0.01 0.05 0.05 98 1020.2
20220122224219 47 327 1.0 3.0 0.01 0.05 0.05 98 1020.1
20220122223703 47 335 1.0 5.0 0.01 0.05 0.05 98 1020.2
20220122223204 47 332 1.0 5.0 0.01 0.05 0.05 98 1020.3
20220122222704 47 336 1.0 5.0 0.00 0.04 0.04 98 1020.2
20220122222201 47 342 0.0 5.0 0.00 0.04 0.04 98 1020.4
20220122221659 47 329 1.0 4.0 0.00 0.04 0.04 98 1020.1
20220122221154 47 328 1.0 4.0 0.00 0.04 0.04 98 1020.1
20220122220651 47 333 0.0 6.0 0.00 0.04 0.04 98 1020.2
20220122220147 47 332 1.0 6.0 0.00 0.04 0.04 98 1020.2
20220122215641 47 332 1.0 4.0 0.00 0.04 0.04 98 1020.3
20220122215139 47 325 1.0 5.0 0.00 0.04 0.04 98 1020.3
20220122214638 47 321 2.0 5.0 0.00 0.04 0.04 98 1020.4
20220122214132 47 338 2.0 4.0 0.00 0.04 0.04 98 1020.3
20220122213633 47 336 0.0 5.0 0.00 0.04 0.04 98 1020.4
20220122213132 47 333 2.0 5.0 0.00 0.04 0.04 98 1020.6
20220122212633 47 329 1.0 4.0 0.01 0.04 0.04 98 1020.5
20220122212129 47 342 0.0 6.0 0.01 0.04 0.04 98 1020.5
20220122211624 46 336 3.0 6.0 0.01 0.04 0.04 98 1020.4
20220122211120 46 332 2.0 6.0 0.01 0.04 0.04 98 1020.5
20220122210615 46 326 0.0 6.0 0.01 0.04 0.04 98 1020.4
20220122210111 46 5 0.0 7.0 0.01 0.04 0.04 98 1020.5
20220122205611 46 338 1.0 7.0 0.01 0.04 0.04 98 1020.4
20220122205108 46 342 1.0 6.0 0.01 0.04 0.04 98 1020.4
20220122204605 46 334 2.0 6.0 0.02 0.04 0.04 98 1020.7
20220122204104 46 327 2.0 6.0 0.02 0.04 0.04 98 1020.7
20220122203605 46 317 0.0 4.0 0.02 0.04 0.04 98 1020.9
20220122203105 46 338 2.0 5.0 0.02 0.04 0.04 98 1020.9
20220122202603 46 332 2.0 6.0 0.01 0.03 0.03 98 1021.0
20220122202103 46 336 2.0 6.0 0.01 0.03 0.03 98 1020.8
20220122201558 46 335 1.0 5.0 0.01 0.03 0.03 98 1020.8
20220122201046 45 327 2.0 5.0 0.01 0.03 0.03 98 1021.0
20220122200541 45 333 1.0 5.0 0.02 0.03 0.03 98 1021.3
20220122200041 45 325 2.0 8.0 0.02 0.03 0.03 98 1021.3
20220122195535 45 329 2.0 8.0 0.02 0.03 0.03 98 1021.4
20220122195032 45 335 0.0 7.0 0.02 0.03 0.03 98 1021.4
20220122194530 45 327 2.0 5.0 0.01 0.02 0.02 98 1021.4
20220122194033 45 325 1.0 4.0 0.01 0.02 0.02 98 1021.6
20220122193530 44 333 2.0 6.0 0.01 0.02 0.02 98 1021.5
20220122193031 44 338 2.0 6.0 0.01 0.02 0.02 98 1021.5
20220122192529 44 321 2.0 6.0 0.01 0.02 0.02 98 1021.7
20220122192031 44 335 0.0 6.0 0.01 0.02 0.02 98 1021.8
20220122191530 44 328 1.0 6.0 0.01 0.02 0.02 98 1021.9
20220122191031 44 330 2.0 5.0 0.01 0.02 0.02 97 1021.9
20220122190530 44 339 2.0 5.0 0.00 0.01 0.01 97 1022.0
20220122190029 44 338 2.0 8.0 0.00 0.01 0.01 97 1022.2
20220122185531 44 39 4.0 8.0 0.00 0.01 0.01 97 1022.4
20220122185030 44 336 3.0 7.0 0.00 0.01 0.01 97 1022.4
20220122184530 44 345 0.0 6.0 0.00 0.01 0.01 97 1022.6
20220122184032 44 311 2.0 6.0 0.01 0.01 0.01 97 1022.7
20220122183530 44 336 4.0 6.0 0.01 0.01 0.01 97 1022.7
20220122183031 44 330 2.0 5.0 0.01 0.01 0.01 97 1022.7
20220122182532 44 20 2.0 5.0 0.01 0.01 0.01 96 1022.8
20220122182031 44 332 2.0 4.0 0.01 0.01 0.01 96 1022.7
20220122181530 44 336 2.0 4.0 0.01 0.01 0.01 95 1022.7
20220122181031 44 332 2.0 4.0 0.01 0.01 0.01 95 1023.0
20220122180530 44 342 1.0 4.0 0.01 0.01 0.01 95 1023.1
20220122180029 44 333 2.0 4.0 0.01 0.01 0.01 95 1023.2
20220122175520 44 15 0.0 4.0 0.01 0.01 0.01 95 1023.3
20220122175016 44 326 1.0 6.0 0.01 0.01 0.01 95 1023.5
20220122174516 44 316 2.0 6.0 0.01 0.01 0.01 95 1023.7
20220122174012 44 336 1.0 6.0 0.00 0.00 0.00 95 1023.7
20220122173509 44 326 2.0 6.0 0.00 0.00 0.00 95 1023.7
20220122173005 44 333 2.0 6.0 0.00 0.00 0.00 94 1023.9
20220122172504 44 339 2.0 6.0 0.00 0.00 0.00 94 1023.8
20220122172005 44 336 1.0 6.0 0.00 0.00 0.00 94 1023.9
20220122171459 44 336 3.0 6.0 0.00 0.00 0.00 94 1024.1
20220122170957 44 345 1.0 4.0 0.00 0.00 0.00 94 1024.1
20220122170453 44 334 1.0 6.0 0.00 0.00 0.00 94 1024.0
20220122165950 44 325 3.0 6.0 0.00 0.00 0.00 93 1024.0
20220122165445 44 333 2.0 6.0 0.00 0.00 0.00 93 1024.1
20220122164942 44 323 1.0 6.0 0.00 0.00 0.00 92 1024.0
20220122164438 44 325 1.0 4.0 0.00 0.00 0.00 92 1024.2
20220122163936 44 340 0.0 5.0 0.00 0.00 0.00 91 1024.0
20220122163432 44 335 0.0 5.0 0.00 0.00 0.00 91 1024.1
20220122162931 44 335 1.0 5.0 0.00 0.00 0.00 90 1024.1
20220122162430 44 338 1.0 5.0 0.00 0.00 0.00 89 1024.0
20220122161931 44 343 1.0 4.0 0.00 0.00 0.00 89 1023.8
20220122161432 44 340 1.0 5.0 0.00 0.00 0.00 88 1023.8
20220122160931 44 328 0.0 5.0 0.00 0.00 0.00 88 1024.0
20220122160433 44 330 0.0 2.0 0.00 0.00 0.00 87 1023.8
20220122155932 44 347 1.0 3.0 0.00 0.00 0.00 87 1023.8
20220122155432 44 325 0.0 3.0 0.00 0.00 0.00 86 1023.8
20220122154932 44 34 0.0 2.0 0.00 0.00 0.00 85 1023.7
20220122154433 44 316 0.0 2.0 0.00 0.00 0.00 84 1023.7
20220122153930 45 325 0.0 2.0 0.00 0.00 0.00 84 1023.7
20220122153431 45 343 0.0 3.0 0.00 0.00 0.00 83 1023.6
20220122152930 45 344 1.0 3.0 0.00 0.00 0.00 82 1023.5
20220122152431 45 343 0.0 1.0 0.00 0.00 0.00 81 1023.3
20220122151932 45 336 0.0 2.0 0.00 0.00 0.00 80 1023.2
20220122151430 45 19 0.0 2.0 0.00 0.00 0.00 79 1023.2
20220122150933 45 21 0.0 5.0 0.00 0.00 0.00 79 1023.2
20220122150433 45 23 0.0 5.0 0.00 0.00 0.00 78 1023.0
20220122145932 45 347 0.0 6.0 0.00 0.00 0.00 77 1023.1
20220122145429 46 23 1.0 6.0 0.00 0.00 0.00 76 1023.1
20220122144929 46 23 0.0 4.0 0.00 0.00 0.00 75 1023.0
20220122144429 46 303 0.0 4.0 0.00 0.01 0.00 74 1023.0
20220122143927 46 329 0.0 4.0 0.00 0.01 0.00 73 1023.0
20220122143414 46 323 0.0 4.0 0.00 0.01 0.00 71 1022.7
20220122142909 46 12 0.0 4.0 0.00 0.01 0.00 71 1022.8
20220122142408 46 340 0.0 4.0 0.00 0.01 0.00 70 1022.6
20220122141905 46 37 0.0 4.0 0.00 0.01 0.00 70 1022.7
20220122141404 46 333 0.0 3.0 0.00 0.02 0.00 69 1022.6
20220122140904 46 340 0.0 3.0 0.00 0.02 0.00 69 1022.5
20220122140404 46 52 0.0 4.0 0.00 0.02 0.00 69 1022.3
20220122135904 46 337 1.0 4.0 0.00 0.02 0.00 68 1022.3
20220122135404 46 356 1.0 3.0 0.00 0.02 0.00 68 1022.4
20220122134905 46 349 0.0 3.0 0.00 0.03 0.00 68 1022.2
20220122134408 46 355 1.0 3.0 0.00 0.04 0.00 67 1022.0
20220122133907 47 338 1.0 4.0 0.00 0.05 0.00 67 1021.8
20220122133407 47 0 1.0 4.0 0.00 0.05 0.00 67 1021.8
20220122132905 47 345 0.0 4.0 0.00 0.06 0.00 67 1021.8
20220122132405 47 337 1.0 4.0 0.00 0.08 0.00 66 1021.9
20220122131906 47 326 0.0 2.0 0.00 0.08 0.00 66 1021.7
20220122131405 47 322 0.0 1.0 0.00 0.09 0.00 66 1021.8
20220122130907 47 326 0.0 1.0 0.00 0.10 0.00 65 1021.7
20220122130407 47 49 0.0 1.0 0.00 0.10 0.00 68 1021.8
20220122125907 47 339 0.0 4.0 0.00 0.11 0.00 66 1021.6
20220122125405 46 335 1.0 4.0 0.00 0.12 0.00 68 1021.6
20220122124905 46 338 0.0 2.0 0.00 0.12 0.00 68 1021.4
20220122124406 46 333 0.0 2.0 0.00 0.13 0.00 68 1021.4
20220122123906 46 326 0.0 1.0 0.00 0.13 0.00 68 1021.2
20220122123406 46 337 0.0 0.0 0.00 0.13 0.00 68 1021.1
20220122122904 46 337 0.0 3.0 0.00 0.14 0.00 67 1021.0
20220122122406 46 6 1.0 4.0 0.00 0.14 0.00 65 1021.0
20220122121906 46 333 1.0 4.0 0.00 0.15 0.00 67 1021.0
20220122121405 46 323 0.0 3.0 0.00 0.15 0.00 67 1020.9
20220122120905 46 336 0.0 3.0 0.00 0.16 0.00 66 1020.7
20220122120404 46 333 0.0 3.0 0.00 0.16 0.00 68 1020.7
20220122115903 46 333 0.0 3.0 0.00 0.16 0.00 66 1020.7
20220122115402 46 343 0.0 3.0 0.00 0.16 0.00 70 1020.5
20220122114903 46 334 0.0 3.0 0.00 0.16 0.00 70 1020.7
20220122114403 46 338 0.0 2.0 0.00 0.16 0.00 71 1020.4
20220122113902 46 336 0.0 2.0 0.00 0.16 0.00 71 1020.5
20220122113403 46 329 0.0 4.0 0.00 0.16 0.00 71 1020.5
20220122112903 46 336 1.0 4.0 0.00 0.17 0.00 70 1020.3
20220122112406 46 333 1.0 3.0 0.00 0.17 0.00 71 1020.4
20220122111904 46 328 1.0 3.0 0.00 0.17 0.00 72 1020.4
20220122111404 46 342 0.0 3.0 0.00 0.18 0.00 73 1020.4
20220122110903 46 333 1.0 3.0 0.00 0.19 0.00 73 1020.4
20220122110403 46 329 0.0 3.0 0.00 0.20 0.00 73 1020.4
20220122105904 46 323 0.0 3.0 0.00 0.21 0.00 74 1020.4
20220122105404 46 347 0.0 2.0 0.00 0.22 0.00 74 1020.3
20220122104906 46 328 0.0 2.0 0.00 0.23 0.00 74 1020.1
20220122104403 46 323 0.0 4.0 0.00 0.23 0.00 74 1020.2
20220122103904 46 328 1.0 4.0 0.00 0.24 0.00 74 1020.3
20220122103404 46 338 0.0 4.0 0.00 0.25 0.00 74 1020.3
20220122102902 46 333 0.0 4.0 0.00 0.26 0.00 75 1020.3
20220122102404 46 333 1.0 4.0 0.00 0.28 0.00 75 1020.1
20220122101904 46 332 0.0 3.0 0.00 0.29 0.00 75 1020.3
20220122101403 46 333 0.0 3.0 0.00 0.32 0.00 75 1020.3
20220122100902 46 329 0.0 3.0 0.00 0.34 0.00 74 1020.4
20220122100402 46 327 1.0 3.0 0.00 0.35 0.00 75 1020.4
20220122095904 46 337 1.0 4.0 0.00 0.36 0.00 74 1020.4
20220122095405 46 337 1.0 4.0 0.00 0.37 0.00 72 1020.4
20220122094905 46 330 0.0 2.0 0.00 0.38 0.00 75 1020.4
20220122094405 46 333 0.0 3.0 0.00 0.39 0.00 75 1020.3
20220122093903 45 332 1.0 3.0 0.00 0.40 0.00 74 1020.4
20220122093404 45 335 0.0 1.0 0.00 0.40 0.00 76 1020.5
20220122092904 45 330 0.0 1.0 0.00 0.41 0.00 77 1020.4
20220122092403 45 332 0.0 1.0 0.00 0.42 0.00 77 1020.4
20220122091903 45 332 0.0 1.0 0.00 0.43 0.00 77 1020.5
20220122091403 45 327 0.0 1.0 0.00 0.45 0.00 77 1020.4
20220122090903 45 328 0.0 2.0 0.00 0.48 0.00 76 1020.6
20220122090403 45 345 1.0 4.0 0.00 0.52 0.00 76 1020.7
20220122085904 45 333 0.0 4.0 0.00 0.58 0.00 76 1020.7
20220122085404 45 336 0.0 2.0 0.00 0.62 0.00 76 1020.9
20220122084905 45 336 0.0 1.0 0.00 0.66 0.00 76 1020.8
20220122084404 45 335 0.0 1.0 0.00 0.69 0.00 76 1020.7
20220122083904 45 336 0.0 3.0 0.00 0.72 0.00 76 1020.8
20220122083403 45 335 1.0 3.0 0.00 0.74 0.00 76 1020.8
20220122082858 45 325 0.0 4.0 0.00 0.76 0.00 76 1021.1
20220122082348 45 331 1.0 4.0 0.00 0.77 0.00 76 1021.1
20220122081845 45 335 0.0 2.0 0.00 0.79 0.00 76 1021.1
20220122081339 45 323 1.0 2.0 0.00 0.79 0.00 77 1021.2
20220122080833 45 335 0.0 2.0 0.00 0.79 0.00 77 1021.3
20220122080331 45 334 0.0 2.0 0.00 0.79 0.00 78 1021.2
20220122075831 45 334 0.0 1.0 0.00 0.79 0.00 78 1021.2
20220122075331 45 334 0.0 1.0 0.00 0.79 0.00 78 1021.3
20220122074830 45 334 0.0 2.0 0.00 0.79 0.00 78 1021.2
20220122074332 45 335 0.0 2.0 0.00 0.79 0.00 78 1021.2
20220122073831 45 334 0.0 2.0 0.00 0.79 0.00 78 1021.2
20220122073333 45 334 0.0 1.0 0.00 0.80 0.00 78 1021.0
20220122072832 45 328 0.0 3.0 0.00 0.81 0.00 78 1021.1
20220122072332 45 328 1.0 3.0 0.00 0.82 0.00 78 1021.3
20220122071833 45 330 0.0 3.0 0.00 0.82 0.00 79 1021.3
20220122071330 45 330 0.0 3.0 0.00 0.82 0.00 78 1021.1
20220122070826 45 330 0.0 2.0 0.00 0.82 0.00 78 1021.1
20220122070322 45 330 0.0 3.0 0.00 0.82 0.00 77 1021.2
20220122065820 45 330 0.0 3.0 0.00 0.82 0.00 77 1021.2
20220122065311 45 331 0.0 2.0 0.00 0.82 0.00 78 1021.3
20220122064812 45 336 0.0 1.0 0.00 0.82 0.00 77 1021.3
20220122064305 45 336 0.0 3.0 0.00 0.82 0.00 77 1021.4
20220122063806 45 336 0.0 3.0 0.00 0.82 0.00 78 1021.5
20220122063304 45 328 0.0 4.0 0.00 0.82 0.00 78 1021.5
20220122062804 45 327 0.0 4.0 0.00 0.82 0.00 78 1021.7
20220122062305 45 330 0.0 3.0 0.00 0.82 0.00 78 1021.8
20220122061804 45 309 0.0 3.0 0.00 0.82 0.00 77 1022.0
20220122061301 45 293 0.0 1.0 0.00 0.82 0.00 76 1022.2
20220122060750 45 316 0.0 2.0 0.00 0.82 0.00 75 1022.1
20220122060245 45 284 0.0 2.0 0.00 0.82 0.00 75 1022.3
20220122055737 45 294 0.0 3.0 0.00 0.82 0.82 75 1022.2
20220122055236 45 330 0.0 3.0 0.00 0.82 0.82 73 1022.2
20220122054732 45 334 0.0 1.0 0.00 0.82 0.82 76 1022.1
20220122054231 45 335 0.0 1.0 0.00 0.82 0.82 75 1022.2
20220122053730 45 312 0.0 1.0 0.00 0.82 0.82 74 1022.2
20220122053231 45 312 0.0 1.0 0.00 0.82 0.82 74 1022.2